CW6122 Weather Reports


Display with metric or nautical units.
time (UTC)temp
F
wind
direction
speed
MPH
gust
MPH
rain 1hr
in
rain 24hr
in
rain mn
in
humidity
%
barometer
mb
20180814212820 53 355 1.0 2.0 0.02 0.76 0.13 92 1007.0
20180814212325 53 355 0.0 3.0 0.01 0.75 0.12 91 1006.9
20180814211833 53 355 2.0 3.0 0.01 0.75 0.12 92 1006.8
20180814211320 53 26 0.0 1.0 0.01 0.75 0.12 90 1006.8
20180814210825 54 26 0.0 3.0 0.00 0.74 0.11 89 1006.7
20180814210332 55 26 1.0 3.0 0.00 0.74 0.11 91 1006.7
20180814205829 54 47 2.0 5.0 0.00 0.75 0.11 88 1006.6
20180814205334 55 30 2.0 5.0 0.00 0.75 0.11 89 1006.6
20180814204819 56 315 3.0 5.0 0.00 0.75 0.11 89 1006.6
20180814204324 55 5 3.0 4.0 0.00 0.75 0.11 90 1006.5
20180814203856 55 13 3.0 4.0 0.00 0.75 0.11 91 1006.5
20180814202844 55 46 2.0 5.0 0.00 0.75 0.11 92 1006.5
20180814202345 54 68 3.0 5.0 0.00 0.75 0.11 92 1006.4
20180814201821 55 56 3.0 5.0 0.00 0.75 0.11 92 1006.4
20180814201323 55 61 3.0 5.0 0.01 0.75 0.11 93 1006.5
20180814200829 54 67 3.0 5.0 0.01 0.75 0.11 94 1006.5
20180814200316 54 76 3.0 4.0 0.01 0.75 0.11 92 1006.4
20180814195832 54 69 1.0 3.0 0.01 0.78 0.11 96 1006.4
20180814195316 53 125 0.0 3.0 0.01 0.78 0.11 95 1006.4
20180814194834 53 167 2.0 3.0 0.01 0.78 0.11 96 1006.4
20180814194320 53 167 1.0 3.0 0.01 0.78 0.11 96 1006.4
20180814193823 52 167 1.0 2.0 0.01 0.78 0.11 96 1006.3
20180814193328 52 167 2.0 3.0 0.01 0.78 0.11 95 1006.3
20180814192831 52 167 2.0 3.0 0.01 0.78 0.11 96 1006.3
20180814192317 52 167 1.0 2.0 0.01 0.78 0.11 95 1006.3
20180814191911 51 167 1.0 2.0 0.01 0.78 0.11 96 1006.2
20180814191324 51 167 0.0 3.0 0.00 0.77 0.10 96 1006.2
20180814190829 51 167 3.0 4.0 0.00 0.77 0.10 95 1006.3
20180814190334 51 175 2.0 4.0 0.00 0.77 0.10 96 1006.2
20180814185832 51 147 2.0 5.0 0.00 0.81 0.10 96 1006.2
20180814185316 51 153 2.0 5.0 0.00 0.81 0.10 96 1006.2
20180814184822 51 142 2.0 4.0 0.00 0.81 0.10 95 1006.1
20180814184329 51 123 2.0 5.0 0.00 0.81 0.10 96 1006.0
20180814183816 51 136 2.0 3.0 0.00 0.81 0.10 96 1005.9
20180814183322 51 125 2.0 4.0 0.00 0.81 0.10 96 1005.9
20180814182826 51 138 2.0 4.0 0.00 0.81 0.10 95 1005.9
20180814182330 51 118 2.0 6.0 0.00 0.81 0.10 96 1005.8
20180814181835 51 125 3.0 4.0 0.00 0.81 0.10 96 1005.8
20180814181321 51 142 2.0 4.0 0.00 0.81 0.10 96 1005.8
20180814180827 51 136 3.0 4.0 0.00 0.81 0.10 96 1005.7
20180814180332 51 141 1.0 4.0 0.00 0.81 0.10 96 1005.7
20180814175824 51 82 2.0 3.0 0.00 0.81 0.10 95 1005.7
20180814175330 51 58 1.0 3.0 0.00 0.81 0.10 95 1005.6
20180814174829 52 44 1.0 3.0 0.00 0.81 0.10 95 1005.6
20180814174333 51 44 1.0 3.0 0.01 0.81 0.10 94 1005.6
20180814173819 51 46 1.0 3.0 0.01 0.81 0.10 95 1005.6
20180814173326 51 46 1.0 4.0 0.01 0.81 0.10 94 1005.5
20180814172833 51 44 1.0 4.0 0.01 0.81 0.10 94 1005.5
20180814172320 51 39 2.0 4.0 0.01 0.81 0.10 95 1005.5
20180814171825 51 26 2.0 4.0 0.01 0.81 0.10 95 1005.3
20180814171332 51 32 2.0 4.0 0.01 0.81 0.10 95 1005.4
20180814170833 51 38 1.0 3.0 0.01 0.81 0.10 95 1005.3
20180814170318 51 36 1.0 3.0 0.01 0.81 0.10 96 1005.3
20180814165833 51 36 2.0 4.0 0.01 0.81 0.10 96 1005.3
20180814165317 51 35 3.0 4.0 0.01 0.81 0.10 95 1005.3
20180814164823 50 28 2.0 5.0 0.01 0.81 0.10 96 1005.3
20180814164327 50 42 3.0 5.0 0.00 0.80 0.09 96 1005.2
20180814163818 50 42 3.0 5.0 0.00 0.80 0.09 96 1005.2
20180814163324 50 24 3.0 5.0 0.00 0.80 0.09 96 1005.1
20180814162830 50 28 3.0 6.0 0.00 0.80 0.09 96 1005.1
20180814162336 50 30 4.0 6.0 0.00 0.80 0.09 96 1005.1
20180814161820 50 36 4.0 7.0 0.00 0.80 0.09 96 1005.0
20180814161325 50 51 2.0 5.0 0.00 0.80 0.09 96 1005.0
20180814160857 50 30 3.0 5.0 0.00 0.80 0.09 96 1005.0
20180814160335 50 38 4.0 5.0 0.00 0.80 0.09 95 1005.0
20180814155830 50 43 3.0 6.0 0.00 0.80 0.09 95 1004.9
20180814155318 50 43 4.0 6.0 0.00 0.80 0.09 95 1004.9
20180814154825 50 51 3.0 8.0 0.00 0.80 0.09 95 1004.9
20180814154330 50 38 3.0 8.0 0.00 0.80 0.09 95 1004.8
20180814153832 50 43 4.0 7.0 0.00 0.80 0.09 95 1004.7
20180814153317 50 30 5.0 7.0 0.00 0.80 0.09 95 1004.8
20180814152821 50 40 4.0 6.0 0.00 0.80 0.09 95 1004.7
20180814152326 50 51 3.0 6.0 0.00 0.80 0.09 95 1004.7
20180814151829 50 17 4.0 7.0 0.00 0.80 0.09 95 1004.6
20180814151335 50 34 3.0 5.0 0.00 0.80 0.09 95 1004.7
20180814150821 50 22 3.0 5.0 0.00 0.80 0.09 95 1004.7
20180814150328 50 34 3.0 5.0 0.00 0.80 0.09 95 1004.6
20180814145822 49 57 4.0 5.0 0.00 0.80 0.09 95 1004.6
20180814145329 49 34 3.0 6.0 0.00 0.80 0.09 95 1004.5
20180814144833 49 32 3.0 6.0 0.00 0.80 0.09 96 1004.5
20180814144320 49 36 4.0 6.0 0.00 0.80 0.09 96 1004.5
20180814143825 49 32 2.0 5.0 0.00 0.80 0.09 96 1004.4
20180814143327 49 18 2.0 6.0 0.00 0.80 0.09 96 1004.4
20180814142832 49 27 4.0 6.0 0.00 0.80 0.09 96 1004.4
20180814142318 49 40 4.0 6.0 0.00 0.80 0.09 96 1004.4
20180814141825 49 22 4.0 6.0 0.00 0.80 0.09 95 1004.4
20180814141358 49 32 3.0 6.0 0.00 0.80 0.09 95 1004.4
20180814140818 49 25 3.0 6.0 0.01 0.80 0.09 95 1004.4
20180814140324 49 32 4.0 6.0 0.01 0.80 0.09 95 1004.4
20180814135817 49 33 4.0 6.0 0.01 0.80 0.09 95 1004.4
20180814135324 49 36 3.0 6.0 0.01 0.80 0.09 95 1004.4
20180814134829 49 46 4.0 6.0 0.02 0.80 0.09 95 1004.4
20180814134335 49 27 4.0 6.0 0.02 0.80 0.09 95 1004.4
20180814133827 49 41 4.0 6.0 0.02 0.80 0.09 95 1004.4
20180814133332 49 18 4.0 6.0 0.02 0.80 0.09 95 1004.3
20180814132836 49 61 3.0 5.0 0.03 0.80 0.09 95 1004.3
20180814132323 49 32 4.0 6.0 0.03 0.80 0.09 95 1004.3
20180814131831 49 48 3.0 6.0 0.03 0.80 0.09 95 1004.3
20180814131317 49 32 3.0 6.0 0.03 0.80 0.09 95 1004.3
20180814130823 49 47 3.0 6.0 0.03 0.79 0.08 95 1004.3
20180814130330 49 30 3.0 6.0 0.03 0.79 0.08 95 1004.3
20180814125827 49 53 4.0 6.0 0.03 0.79 0.08 95 1004.2
20180814125333 50 41 3.0 6.0 0.03 0.79 0.08 95 1004.2
20180814124819 49 53 4.0 6.0 0.02 0.78 0.07 95 1004.3
20180814124325 49 44 3.0 6.0 0.02 0.78 0.07 95 1004.2
20180814123315 50 34 4.0 6.0 0.03 0.78 0.07 94 1004.2
20180814122822 50 37 3.0 6.0 0.02 0.77 0.06 94 1004.2
20180814122328 50 31 2.0 4.0 0.02 0.77 0.06 94 1004.2
20180814121835 50 60 3.0 5.0 0.02 0.77 0.06 94 1004.1
20180814121322 50 48 3.0 6.0 0.02 0.77 0.06 94 1004.1
20180814120829 50 41 3.0 6.0 0.01 0.76 0.05 94 1004.1
20180814120323 50 47 4.0 7.0 0.01 0.76 0.05 94 1004.1
20180814115818 50 33 5.0 7.0 0.01 0.76 0.05 94 1004.1
20180814115320 50 36 4.0 6.0 0.01 0.76 0.05 94 1004.1
20180814114825 50 47 3.0 6.0 0.02 0.76 0.05 94 1004.1
20180814114333 50 34 4.0 7.0 0.02 0.76 0.05 94 1004.0
20180814113820 50 41 5.0 7.0 0.01 0.75 0.04 94 1004.1
20180814113314 50 44 3.0 6.0 0.01 0.75 0.04 94 1004.0
20180814112820 50 36 3.0 9.0 0.01 0.75 0.04 94 1004.0
20180814112325 50 46 4.0 9.0 0.01 0.75 0.04 94 1004.0
20180814111829 50 53 3.0 6.0 0.01 0.75 0.04 94 1004.0
20180814111337 50 36 4.0 6.0 0.01 0.75 0.04 94 1004.0
20180814110841 50 56 4.0 6.0 0.01 0.75 0.04 94 1003.9
20180814105824 50 29 4.0 5.0 0.02 0.75 0.04 94 1004.0
20180814105330 50 36 3.0 5.0 0.02 0.75 0.04 94 1004.0
20180814104816 50 31 2.0 4.0 0.01 0.74 0.03 94 1004.0
20180814104320 50 37 3.0 4.0 0.01 0.74 0.03 94 1004.0
20180814103827 50 30 3.0 4.0 0.01 0.74 0.03 93 1004.0
20180814103333 50 26 2.0 4.0 0.01 0.74 0.03 93 1003.9
20180814102829 50 28 3.0 4.0 0.01 0.74 0.03 93 1004.0
20180814102329 50 30 2.0 4.0 0.01 0.74 0.03 93 1003.9
20180814101816 50 36 2.0 4.0 0.01 0.74 0.03 93 1004.0
20180814101323 50 11 2.0 5.0 0.01 0.74 0.03 93 1003.9
20180814100827 50 30 3.0 5.0 0.01 0.74 0.03 93 1003.9
20180814100333 50 17 3.0 4.0 0.01 0.74 0.03 93 1003.9
20180814095833 50 22 3.0 4.0 0.00 0.73 0.02 93 1003.8
20180814095318 50 10 2.0 5.0 0.00 0.73 0.02 93 1003.8
20180814094823 51 355 3.0 5.0 0.01 0.73 0.02 92 1003.7
20180814094325 51 24 3.0 4.0 0.01 0.73 0.02 92 1003.7
20180814093832 51 5 3.0 5.0 0.01 0.73 0.02 93 1003.7
20180814093317 51 12 2.0 5.0 0.01 0.73 0.02 93 1003.7
20180814092321 51 25 3.0 6.0 0.01 0.73 0.02 93 1003.7
20180814091831 51 347 4.0 7.0 0.01 0.73 0.02 93 1003.7
20180814091331 51 34 3.0 7.0 0.01 0.73 0.02 94 1003.6
20180814090818 51 30 4.0 9.0 0.01 0.73 0.02 94 1003.6
20180814090322 51 15 5.0 9.0 0.01 0.73 0.02 94 1003.6
20180814085836 51 27 4.0 8.0 0.02 0.73 0.02 94 1003.6
20180814085318 51 36 5.0 8.0 0.02 0.73 0.02 94 1003.5
20180814084823 51 40 3.0 7.0 0.01 0.72 0.01 94 1003.5
20180814084331 51 60 4.0 7.0 0.01 0.72 0.01 94 1003.5
20180814083835 51 26 4.0 6.0 0.01 0.72 0.01 95 1003.5
20180814083321 51 23 4.0 6.0 0.01 0.72 0.01 95 1003.5
20180814082822 51 50 3.0 5.0 0.01 0.72 0.01 95 1003.5
20180814082333 51 37 3.0 5.0 0.01 0.72 0.01 95 1003.4
20180814081817 51 38 2.0 4.0 0.01 0.72 0.01 95 1003.4
20180814081321 52 43 2.0 4.0 0.01 0.72 0.01 94 1003.3
20180814080828 52 24 3.0 4.0 0.01 0.72 0.01 94 1003.3
20180814080335 52 28 3.0 4.0 0.01 0.72 0.01 94 1003.3
20180814075841 52 37 2.0 3.0 0.00 0.71 0.71 95 1003.3
20180814075320 52 9 1.0 3.0 0.01 0.71 0.71 96 1003.3
20180814074825 52 76 0.0 0.0 0.01 0.71 0.71 96 1003.3
20180814074331 52 76 0.0 0.0 0.01 0.71 0.71 96 1003.2
20180814073831 52 76 0.0 2.0 0.01 0.71 0.71 96 1003.2
20180814073316 52 76 0.0 2.0 0.01 0.71 0.71 96 1003.2
20180814072821 52 76 0.0 0.0 0.01 0.71 0.71 96 1003.2
20180814072358 52 76 0.0 1.0 0.01 0.71 0.71 96 1003.2
20180814071829 52 76 0.0 3.0 0.01 0.71 0.71 96 1003.1
20180814071335 52 76 1.0 2.0 0.01 0.71 0.71 96 1003.1
20180814070821 52 76 0.0 2.0 0.01 0.71 0.71 96 1003.1
20180814070325 52 76 0.0 2.0 0.01 0.71 0.71 96 1003.1
20180814065819 52 76 1.0 2.0 0.01 0.71 0.71 96 1003.1
20180814065324 52 76 1.0 3.0 0.00 0.70 0.70 97 1003.0
20180814064828 52 76 0.0 3.0 0.01 0.70 0.70 96 1003.0
20180814064335 52 76 2.0 3.0 0.02 0.70 0.70 96 1003.0
20180814063821 52 76 1.0 2.0 0.02 0.70 0.70 96 1003.0
20180814063326 52 76 1.0 3.0 0.03 0.70 0.70 96 1002.9
20180814062833 52 76 2.0 3.0 0.03 0.70 0.70 96 1002.9
20180814062318 52 80 2.0 3.0 0.04 0.70 0.70 96 1002.9
20180814061824 52 82 2.0 3.0 0.04 0.70 0.70 95 1002.9
20180814061330 52 82 1.0 3.0 0.05 0.70 0.70 95 1002.9
20180814060817 53 82 2.0 3.0 0.06 0.70 0.70 95 1002.9
20180814060323 53 82 2.0 4.0 0.06 0.70 0.70 95 1002.8
20180814055816 53 82 2.0 4.0 0.06 0.70 0.70 95 1002.8
20180814055323 53 63 2.0 3.0 0.06 0.69 0.69 95 1002.8
20180814054830 53 91 1.0 3.0 0.06 0.69 0.69 96 1002.8
20180814054317 53 90 2.0 3.0 0.06 0.68 0.68 96 1002.8
20180814053825 53 68 0.0 2.0 0.06 0.68 0.68 96 1002.8
20180814053330 53 68 1.0 3.0 0.05 0.67 0.67 96 1002.8
20180814052836 53 69 2.0 3.0 0.05 0.67 0.67 96 1002.7
20180814052320 53 69 1.0 3.0 0.04 0.66 0.66 96 1002.7
20180814051825 53 72 0.0 3.0 0.04 0.66 0.66 96 1002.7
20180814051330 53 72 1.0 4.0 0.03 0.65 0.65 96 1002.7
20180814050819 53 67 1.0 3.0 0.02 0.64 0.64 96 1002.7
20180814050325 53 50 0.0 0.0 0.02 0.64 0.64 96 1002.7
20180814045821 53 50 0.0 0.0 0.02 0.64 0.64 96 1002.7
20180814045326 53 50 0.0 2.0 0.02 0.63 0.63 96 1002.7
20180814044830 53 50 0.0 2.0 0.03 0.63 0.63 96 1002.7
20180814044337 53 49 1.0 2.0 0.02 0.62 0.62 96 1002.7
20180814043832 54 57 0.0 0.0 0.02 0.62 0.62 96 1002.7
20180814043317 54 57 0.0 0.0 0.03 0.62 0.62 96 1002.7
20180814042820 54 57 0.0 0.0 0.03 0.62 0.62 96 1002.6
20180814042326 54 27 0.0 0.0 0.03 0.62 0.62 96 1002.6
20180814041831 54 27 0.0 0.0 0.03 0.62 0.62 96 1002.5
20180814041318 54 342 0.0 0.0 0.04 0.62 0.62 95 1002.6
20180814040825 54 342 0.0 0.0 0.05 0.62 0.62 96 1002.6
20180814040332 54 342 0.0 0.0 0.06 0.62 0.62 96 1002.6
20180814035828 54 342 0.0 2.0 0.07 0.62 0.62 96 1002.5
20180814035333 54 342 0.0 3.0 0.06 0.61 0.61 95 1002.6
20180814034819 54 342 1.0 3.0 0.06 0.60 0.60 96 1002.6
20180814034326 54 250 0.0 1.0 0.06 0.60 0.60 95 1002.7
20180814033833 54 250 0.0 1.0 0.07 0.60 0.60 95 1002.7
20180814033336 54 250 0.0 2.0 0.06 0.59 0.59 94 1002.6
20180814032843 54 250 1.0 2.0 0.06 0.59 0.59 94 1002.6
20180814032332 54 250 0.0 1.0 0.07 0.59 0.59 94 1002.7
20180814031818 54 250 0.0 1.0 0.07 0.59 0.59 94 1002.7
20180814031319 54 250 0.0 3.0 0.06 0.58 0.58 93 1002.6
20180814030825 55 250 0.0 3.0 0.05 0.57 0.57 92 1002.7
20180814030330 55 250 1.0 3.0 0.05 0.56 0.56 92 1002.6
20180814025826 55 229 1.0 4.0 0.04 0.55 0.55 92 1002.7
20180814025335 55 242 2.0 4.0 0.05 0.55 0.55 92 1002.8
20180814024822 55 257 2.0 4.0 0.04 0.54 0.54 91 1002.7
20180814024327 55 239 1.0 5.0 0.06 0.54 0.54 91 1002.7
20180814023827 55 254 1.0 5.0 0.07 0.53 0.53 92 1002.7
20180814023332 55 54 0.0 0.0 0.08 0.53 0.53 92 1002.7
20180814022818 55 55 0.0 0.0 0.09 0.53 0.53 91 1002.6
20180814021820 55 341 1.0 4.0 0.11 0.52 0.52 92 1002.7
20180814021326 55 300 1.0 5.0 0.11 0.52 0.52 92 1002.7
20180814020829 55 284 0.0 4.0 0.11 0.52 0.52 93 1002.7
20180814020335 55 284 2.0 4.0 0.11 0.51 0.51 93 1002.7
20180814015831 55 59 1.0 3.0 0.11 0.51 0.51 94 1002.7
20180814015316 55 59 0.0 0.0 0.11 0.50 0.50 94 1002.7
20180814014831 54 59 0.0 2.0 0.13 0.50 0.50 94 1002.8
20180814014316 54 58 0.0 3.0 0.13 0.48 0.48 93 1002.8
20180814013822 54 59 1.0 4.0 0.14 0.46 0.46 93 1002.7
20180814013329 54 58 0.0 4.0 0.15 0.45 0.45 93 1002.7
20180814012835 55 59 1.0 4.0 0.14 0.44 0.44 93 1002.7
20180814012322 55 63 3.0 4.0 0.13 0.42 0.42 93 1002.7
20180814011828 55 74 2.0 4.0 0.13 0.41 0.41 93 1002.7
20180814011333 54 80 2.0 4.0 0.14 0.41 0.41 93 1002.7
20180814010821 55 91 0.0 2.0 0.14 0.41 0.41 93 1002.6
20180814010329 55 91 0.0 2.0 0.13 0.40 0.40 92 1002.6
20180814005826 55 91 0.0 3.0 0.13 0.40 0.40 94 1002.6
20180814005331 55 91 2.0 3.0 0.13 0.39 0.39 94 1002.6
20180814004816 55 91 0.0 2.0 0.11 0.37 0.37 93 1002.6
20180814004318 55 91 1.0 3.0 0.10 0.35 0.35 93 1002.6
20180814003821 55 92 1.0 3.0 0.06 0.31 0.31 92 1002.6
20180814003327 55 83 1.0 4.0 0.06 0.30 0.30 92 1002.6
20180814002829 56 82 2.0 5.0 0.06 0.30 0.30 92 1002.5
20180814002336 56 62 3.0 5.0 0.06 0.29 0.29 92 1002.5
20180814001820 56 57 3.0 4.0 0.06 0.28 0.28 93 1002.5
20180814001326 56 41 2.0 4.0 0.06 0.27 0.27 92 1002.5
20180814000834 56 34 2.0 4.0 0.06 0.27 0.27 93 1002.5
20180814000320 56 32 3.0 4.0 0.06 0.27 0.27 92 1002.5
20180813235905 56 47 3.0 3.0 0.07 0.27 0.27 93 1002.6
20180813235320 56 30 2.0 3.0 0.08 0.26 0.26 92 1002.6
20180813234822 56 335 1.0 3.0 0.09 0.26 0.26 91 1002.7
20180813234328 56 334 1.0 3.0 0.09 0.25 0.25 92 1002.7
20180813233836 56 334 1.0 4.0 0.10 0.25 0.25 92 1002.7
20180813233320 56 323 2.0 4.0 0.10 0.24 0.24 92 1002.7
20180813232825 56 325 0.0 0.0 0.11 0.24 0.24 92 1002.7
20180813232331 56 324 0.0 2.0 0.11 0.23 0.23 92 1002.8
20180813231818 56 324 0.0 4.0 0.10 0.22 0.22 93 1002.7
20180813231323 56 323 2.0 4.0 0.09 0.21 0.21 92 1002.7
20180813230828 56 314 2.0 3.0 0.10 0.21 0.21 92 1002.6
20180813230335 56 330 2.0 3.0 0.10 0.21 0.21 92 1002.6
20180813225827 56 330 1.0 4.0 0.09 0.20 0.20 90 1002.7
20180813225333 56 313 3.0 4.0 0.07 0.18 0.18 93 1002.7
20180813224819 56 319 4.0 4.0 0.06 0.17 0.17 91 1002.6
20180813224325 56 5 0.0 4.0 0.05 0.16 0.16 90 1002.6
20180813223832 56 5 2.0 4.0 0.05 0.15 0.15 89 1002.6
20180813223317 56 355 1.0 4.0 0.04 0.14 0.14 90 1002.6
20180813222830 57 339 1.0 4.0 0.04 0.13 0.13 90 1002.7
20180813222335 57 319 2.0 4.0 0.03 0.12 0.12 90 1002.7
20180813221822 57 334 2.0 4.0 0.04 0.12 0.12 90 1002.7
20180813221329 57 334 2.0 4.0 0.04 0.12 0.12 91 1002.6
20180813220836 57 336 1.0 3.0 0.03 0.11 0.11 90 1002.6
20180813220324 57 335 2.0 4.0 0.03 0.11 0.11 91 1002.6
20180813215834 57 335 2.0 4.0 0.03 0.11 0.11 91 1002.6
20180813215319 57 5 0.0 0.0 0.03 0.11 0.11 91 1002.5
20180813214824 57 48 0.0 0.0 0.03 0.11 0.11 92 1002.5
20180813214330 57 48 0.0 0.0 0.02 0.10 0.10 90 1002.5
20180813213836 57 49 0.0 0.0 0.02 0.10 0.10 92 1002.5
20180813213321 57 49 0.0 4.0 0.02 0.10 0.10 92 1002.4